User: anonymous   Login
Location: Caltech
(34.1382°N, 118.1253°W)
Time: 18:09:42
(UTC-08:00)
Language:

SEDSat Delta rocket - Orbit

View from above orbital plane
View from above orbital plane
View from above satellite
View from above satellite

Ground track
Ground track

The orbit data is extracted from the following two-line orbital elements,

1 25510U 98061C   17018.89989807  .00000186  00000-0  19784-4 0  9990
2 25510  31.4351 276.4628 0328483 197.2595 247.9252 14.37150093955826
Epoch (UTC): 18 January 2017 21:35:51
Eccentricity: 0.0328483
inclination: 31.4351°
perigee height: 533 km
apogee height: 1002 km
right ascension of ascending node: 276.4628°
argument of perigee: 197.2595°
revolutions per day: 14.37150093
mean anomaly at epoch: 247.9252°
orbit number at epoch: 95582

The dashed part of the orbit path shows where the satellite is in the earth's shadow,  

DLR